Clarksburg, WV

8:42 PM EST on November 22, 2019 (GMT -0500)
Benedum

Weather History for KCKB - May, 2019

Change the Weather History Date:

Friday, May 24, 2019

  Actual Average Record
Temperature  
Mean Temperature 72 °F -  
Max Temperature 82 °F 74 °F 95 °F (1941)
Min Temperature 62 °F 51 °F 32 °F (1963)
Cooling Degree Days 7    
Month to date cooling degree days 91  
Year to date cooling degree days 116  
Growing Degree Days 24 (Base 50)    
Moisture  
Dew Point 57 °F    
Average Humidity 62    
Maximum Humidity 84    
Minimum Humidity 39    
Precipitation  
Precipitation 0.00 in - - ()
Month to date precipitation 2.20  
Year to date precipitation 16.33  
Sea Level Pressure  
Sea Level Pressure 30.08 in    
Wind  
Wind Speed 5 mph (WNW)    
Max Wind Speed 15 mph    
Max Gust Speed 19 mph    
Visibility 10 miles    
Events      
Averages and records for this station are not official NWS values.
T = Trace of Precipitation, MM = Missing Value Source: NWS Daily Summary

Daily Weather History Graph

Daily Weather History Graph

Search for Another Location

Airport or City:

Astronomy

May. 24, 2019 Rise Set
Actual Time 6:00 AM EDT 8:35 PM EDT
Civil Twilight 5:29 AM EDT 9:06 PM EDT
Nautical Twilight 4:51 AM EDT 9:45 PM EDT
Astronomical Twilight 4:07 AM EDT 10:28 PM EDT
Moon 12:59 AM EDT (5/24) 10:59 AM EDT (5/24)
Length of Visible Light 15h 36m
Length of Day
14h 34m
Waning Gibbous, 69% of the Moon is Illuminated
May 24
Waning Gibbous
May 26
Last Quarter
Jun 3
New
Jun 10
First Quarter
Jun 17
Full

Hourly Weather History & Observations

Time (EDT) Temp. Heat Index Dew Point Humidity Pressure Visibility Wind Dir Wind Speed Gust Speed Precip Events Conditions
12:53 AM 73.9 °F - 64.9 °F 73% 30.01 in 10.0 mi West 5.8 mph - N/A   Partly Cloudy
1:53 AM 73.0 °F - 64.9 °F 76% 30.01 in 10.0 mi WSW 5.8 mph - N/A   Partly Cloudy
2:53 AM 73.0 °F - 66.0 °F 79% 30.01 in 10.0 mi West 6.9 mph - N/A   Mostly Cloudy
3:08 AM 72.0 °F - 66.0 °F 81% 30.06 in 10.0 mi West 5.8 mph - N/A   Scattered Clouds
3:53 AM 71.1 °F - 64.9 °F 81% 30.02 in 10.0 mi West 4.6 mph - N/A   Clear
4:53 AM 69.1 °F - 64.0 °F 84% 30.04 in 10.0 mi Calm Calm - N/A   Partly Cloudy
5:53 AM 69.1 °F - 60.1 °F 73% 30.06 in 10.0 mi NNW 5.8 mph - N/A   Clear
6:53 AM 66.9 °F - 55.9 °F 68% 30.08 in 10.0 mi North 6.9 mph - N/A   Clear
7:53 AM 68.0 °F - 55.0 °F 63% 30.10 in 10.0 mi NNE 8.1 mph - N/A   Clear
8:53 AM 70.0 °F - 55.0 °F 59% 30.11 in 10.0 mi Variable 3.5 mph - N/A   Clear
9:53 AM 71.1 °F - 52.0 °F 51% 30.11 in 10.0 mi Calm Calm - N/A   Clear
10:53 AM 75.0 °F - 51.1 °F 43% 30.11 in 10.0 mi West 5.8 mph - N/A   Clear
11:53 AM 75.9 °F - 52.0 °F 43% 30.11 in 10.0 mi NW 6.9 mph - N/A   Clear
12:53 PM 79.0 °F - 53.1 °F 40% 30.11 in 10.0 mi WNW 8.1 mph - N/A   Clear
1:53 PM 80.1 °F 79.9 °F 53.1 °F 39% 30.11 in 10.0 mi WNW 8.1 mph - N/A   Clear
2:53 PM 80.1 °F 80.1 °F 55.0 °F 42% 30.08 in 10.0 mi Variable 3.5 mph - N/A   Clear
3:53 PM 81.0 °F 80.5 °F 54.0 °F 39% 30.09 in 10.0 mi West 4.6 mph - N/A   Clear
4:53 PM 81.0 °F 80.5 °F 54.0 °F 39% 30.09 in 10.0 mi West 9.2 mph - N/A   Clear
5:53 PM 79.0 °F - 54.0 °F 42% 30.10 in 10.0 mi West 6.9 mph - N/A   Overcast
6:53 PM 78.1 °F - 55.0 °F 45% 30.11 in 10.0 mi WNW 6.9 mph - N/A   Overcast
7:53 PM 75.9 °F - 55.0 °F 48% 30.09 in 10.0 mi West 3.5 mph - N/A   Overcast
8:53 PM 73.9 °F - 57.0 °F 55% 30.08 in 10.0 mi Calm Calm - N/A   Mostly Cloudy
9:53 PM 69.1 °F - 57.0 °F 65% 30.08 in 10.0 mi Calm Calm - N/A   Clear
10:53 PM 68.0 °F - 57.9 °F 70% 30.09 in 10.0 mi Calm Calm - N/A   Clear
11:53 PM 66.0 °F - 57.0 °F 73% 30.09 in 10.0 mi Calm Calm - N/A   Clear